Tracking 31027 objects as of 19-Jul-2025
HD Live streaming from Space Station
objects crossing your sky now

STARLINK-2220

Track STARLINK-2220 now!
10-day predictions
STARLINK-2220 is classified as:


NORAD ID: 48570
Int'l Code: 2021-041T
Perigee: 553.3 km
Apogee: 555.5 km
Inclination: 53.1 °
Period: 95.6 minutes
Semi major axis: 6925 km
RCS: Unknown
Launch date: May 15, 2021
Source: United States (US)
Launch site: AIR FORCE EASTERN TEST RANGE (AFETR)
Your satellite tracking list
FLOCK 3S 1
Track 1 satellite(s)




NASA's NSSDC Master Catalog

Two Line Element Set (TLE):
1 48570U 21041T   25199.48055503 -.00000231  00000-0  33899-5 0  9992
2 48570  53.0547 113.0240 0001590  92.6994 267.4177 15.06397599229758
Source of the keplerian elements: AFSPC